Location: Cisewo
(53.3833°N, 14.9000°E)
Time: 00:48:00
(UTC+00:00)

POLYITAN 1 - Pass Details

Date: 26 September 2021
Orbit: 588 x 611 km, 97.9° (Epoch: 24 October)

Event Time Altitude Azimuth Distance (km) Brightness Sun altitude
Rises 01:37:38 0° 7° (N) 2,867 ? -27.7°
Reaches altitude 10° 01:40:02 10° 357° (N) 1,955 ? -27.4°
Enters shadow 01:41:55 21° 337° (NNW) 1,360 ? -27.2°
